N4JP KLAS-KVNY

Flight info

Callsign N4JP
Flight time 0h 52m
Altitude 40000
Route RADYR2 SLVRR KREME JANNY5
Aircraft E50P/L-SBDFGRWY/LB2

Departure

Time 2026-05-04 00:51
Airport Harry Reid International Airport (KLAS)

Arrival

Time 2026-05-04 01:44
Airport Van Nuys Airport (KVNY)
Time Latitude Longitude Altitude Speed Heading
2026-05-04 00:35 36.09983 -115.15945 2096 ft 0 kts 98°
2026-05-04 00:44 36.09979 -115.15916 2095 ft 6 kts 101°
2026-05-04 00:45 36.09968 -115.15845 2094 ft 10 kts 92°
2026-05-04 00:45 36.09982 -115.15774 2093 ft 7 kts 70°
2026-05-04 00:45 36.09985 -115.15761 2093 ft 0 kts 81°
2026-05-04 00:45 36.09985 -115.15753 2093 ft 3 kts 85°
2026-05-04 00:46 36.09985 -115.15747 2093 ft 0 kts 95°
2026-05-04 00:50 36.09985 -115.15746 2093 ft 1 kts 95°
2026-05-04 00:50 36.09977 -115.15710 2093 ft 8 kts 115°
2026-05-04 00:50 36.09925 -115.15670 2094 ft 11 kts 207°
2026-05-04 00:51 36.09692 -115.15805 2104 ft 65 kts 205°
2026-05-04 00:51 36.09137 -115.16116 2162 ft 106 kts 204°
2026-05-04 00:51 36.08427 -115.16519 2522 ft 114 kts 207°
2026-05-04 00:51 36.07708 -115.16922 3117 ft 121 kts 200°
2026-05-04 00:52 36.06914 -115.17367 3640 ft 128 kts 205°
2026-05-04 00:52 36.06078 -115.17809 4237 ft 133 kts 201°
2026-05-04 00:52 36.05208 -115.18198 4847 ft 138 kts 200°
2026-05-04 00:52 36.04229 -115.18622 5282 ft 154 kts 200°
2026-05-04 00:53 36.03219 -115.19070 6011 ft 154 kts 201°
2026-05-04 00:53 36.02259 -115.19608 6755 ft 151 kts 209°
2026-05-04 00:53 36.01266 -115.20319 7019 ft 184 kts 209°
2026-05-04 00:53 36.00010 -115.21086 7033 ft 217 kts 204°
2026-05-04 00:54 35.98516 -115.21779 7041 ft 240 kts 200°
2026-05-04 00:54 35.96967 -115.22466 7702 ft 226 kts 200°
2026-05-04 00:54 35.95504 -115.23117 8208 ft 225 kts 200°
2026-05-04 00:54 35.94029 -115.23777 8580 ft 228 kts 200°
2026-05-04 00:55 35.92563 -115.24465 9278 ft 214 kts 201°
2026-05-04 00:55 35.91224 -115.25079 9965 ft 207 kts 200°
2026-05-04 00:55 35.89859 -115.25698 10359 ft 211 kts 200°
2026-05-04 00:55 35.88472 -115.26327 10820 ft 212 kts 200°
2026-05-04 00:56 35.87086 -115.26954 11278 ft 213 kts 200°
2026-05-04 00:56 35.85692 -115.27586 11735 ft 214 kts 200°
2026-05-04 00:56 35.84285 -115.28224 12158 ft 216 kts 200°
2026-05-04 00:56 35.82874 -115.28864 12628 ft 217 kts 200°
2026-05-04 00:57 35.81450 -115.29509 13062 ft 219 kts 200°
2026-05-04 00:57 35.80042 -115.30145 13749 ft 206 kts 200°
2026-05-04 00:57 35.78754 -115.30725 14548 ft 193 kts 200°
2026-05-04 00:57 35.77492 -115.31300 15123 ft 193 kts 200°
2026-05-04 00:58 35.76227 -115.31873 15715 ft 194 kts 200°
2026-05-04 00:58 35.74961 -115.32444 16316 ft 193 kts 200°
2026-05-04 00:58 35.73697 -115.33011 16922 ft 193 kts 201°
2026-05-04 00:58 35.72436 -115.33581 17527 ft 193 kts 201°
2026-05-04 00:59 35.71177 -115.34156 18128 ft 193 kts 201°
2026-05-04 00:59 35.69918 -115.34722 18691 ft 192 kts 202°
2026-05-04 00:59 35.68669 -115.35283 19272 ft 190 kts 204°
2026-05-04 00:59 35.67451 -115.35833 19862 ft 187 kts 205°
2026-05-04 01:00 35.66238 -115.36379 20499 ft 183 kts 206°
2026-05-04 01:00 35.65246 -115.36827 21054 ft 179 kts 208°
2026-05-04 01:00 35.64089 -115.37346 21725 ft 175 kts 209°
2026-05-04 01:00 35.62965 -115.37853 22418 ft 169 kts 211°
2026-05-04 01:01 35.61888 -115.38366 23108 ft 161 kts 217°
2026-05-04 01:01 35.60961 -115.39044 23719 ft 151 kts 224°
2026-05-04 01:01 35.60153 -115.39837 24233 ft 146 kts 231°
2026-05-04 01:01 35.59463 -115.40731 24753 ft 143 kts 236°
2026-05-04 01:02 35.58796 -115.41634 25268 ft 142 kts 235°
2026-05-04 01:02 35.58133 -115.42530 25784 ft 141 kts 236°
2026-05-04 01:02 35.57477 -115.43416 26305 ft 139 kts 236°
2026-05-04 01:02 35.56830 -115.44295 26817 ft 138 kts 237°
2026-05-04 01:03 35.56187 -115.45160 27348 ft 136 kts 238°
2026-05-04 01:03 35.55537 -115.46053 27546 ft 152 kts 238°
2026-05-04 01:03 35.54789 -115.47070 27728 ft 169 kts 236°
2026-05-04 01:03 35.53947 -115.48216 27746 ft 192 kts 236°
2026-05-04 01:04 35.52996 -115.49498 27749 ft 214 kts 235°
2026-05-04 01:04 35.51961 -115.50893 27750 ft 233 kts 234°
2026-05-04 01:04 35.50830 -115.52413 27754 ft 249 kts 234°
2026-05-04 01:04 35.49632 -115.54027 27756 ft 262 kts 234°
2026-05-04 01:05 35.48375 -115.55720 27757 ft 274 kts 234°
2026-05-04 01:05 35.47069 -115.57480 27758 ft 283 kts 233°
2026-05-04 01:05 35.45724 -115.59291 27753 ft 291 kts 233°
2026-05-04 01:05 35.44338 -115.61155 27639 ft 300 kts 233°
2026-05-04 01:06 35.42912 -115.63074 27476 ft 308 kts 233°
2026-05-04 01:06 35.41453 -115.65036 27316 ft 314 kts 233°
2026-05-04 01:06 35.39965 -115.67032 27154 ft 319 kts 233°
2026-05-04 01:06 35.38462 -115.69051 26993 ft 322 kts 233°
2026-05-04 01:07 35.36947 -115.71084 26829 ft 324 kts 232°
2026-05-04 01:07 35.35423 -115.73128 26663 ft 326 kts 232°
2026-05-04 01:07 35.33832 -115.75122 26502 ft 329 kts 228°
2026-05-04 01:07 35.32122 -115.76992 26349 ft 330 kts 228°
2026-05-04 01:08 35.30437 -115.78903 26153 ft 331 kts 229°
2026-05-04 01:08 35.28742 -115.80823 25960 ft 333 kts 228°
2026-05-04 01:08 35.27025 -115.82735 25772 ft 334 kts 227°
2026-05-04 01:08 35.25889 -115.84000 25649 ft 334 kts 227°
2026-05-04 01:09 35.24176 -115.85916 25463 ft 334 kts 228°
2026-05-04 01:09 35.22464 -115.87832 25277 ft 334 kts 227°
2026-05-04 01:09 35.20750 -115.89746 25093 ft 334 kts 227°
2026-05-04 01:09 35.19033 -115.91663 24910 ft 334 kts 227°
2026-05-04 01:10 35.17319 -115.93574 24721 ft 333 kts 227°
2026-05-04 01:10 35.15615 -115.95474 24537 ft 330 kts 227°
2026-05-04 01:10 35.13921 -115.97361 24239 ft 331 kts 227°
2026-05-04 01:10 35.12222 -115.99255 23878 ft 329 kts 227°
2026-05-04 01:11 35.10550 -116.01110 23739 ft 319 kts 227°
2026-05-04 01:11 35.08941 -116.02897 23737 ft 307 kts 227°
2026-05-04 01:11 35.07391 -116.04621 23735 ft 297 kts 227°
2026-05-04 01:11 35.05889 -116.06293 23735 ft 287 kts 227°
2026-05-04 01:12 35.04433 -116.07909 23732 ft 279 kts 227°
2026-05-04 01:12 35.03020 -116.09478 23729 ft 273 kts 228°
2026-05-04 01:12 35.01596 -116.11065 23728 ft 282 kts 227°
2026-05-04 01:12 35.00124 -116.12701 23722 ft 290 kts 227°
2026-05-04 01:13 34.98618 -116.14367 23723 ft 295 kts 227°
2026-05-04 01:13 34.97085 -116.16063 23720 ft 299 kts 227°
2026-05-04 01:13 34.95537 -116.17776 23724 ft 302 kts 227°
2026-05-04 01:13 34.94002 -116.19490 23732 ft 303 kts 229°
2026-05-04 01:14 34.92598 -116.21398 23726 ft 301 kts 234°
2026-05-04 01:14 34.91388 -116.23477 23731 ft 301 kts 240°
2026-05-04 01:14 34.90383 -116.25715 23733 ft 301 kts 245°
2026-05-04 01:14 34.89504 -116.28031 23736 ft 302 kts 245°
2026-05-04 01:15 34.88598 -116.30335 23741 ft 302 kts 245°
2026-05-04 01:15 34.87695 -116.32648 23735 ft 302 kts 245°
2026-05-04 01:15 34.86801 -116.34962 23747 ft 302 kts 245°
2026-05-04 01:15 34.85904 -116.37277 23749 ft 302 kts 245°
2026-05-04 01:16 34.85000 -116.39601 23755 ft 303 kts 245°
2026-05-04 01:16 34.84097 -116.41921 23757 ft 304 kts 245°
2026-05-04 01:16 34.83188 -116.44258 23653 ft 307 kts 245°
2026-05-04 01:16 34.82267 -116.46623 23495 ft 311 kts 245°
2026-05-04 01:17 34.81337 -116.49012 23292 ft 314 kts 245°
2026-05-04 01:17 34.80407 -116.51393 23077 ft 316 kts 245°
2026-05-04 01:17 34.79506 -116.53842 22859 ft 317 kts 248°
2026-05-04 01:17 34.78843 -116.56405 22758 ft 315 kts 253°
2026-05-04 01:18 34.78418 -116.59023 22597 ft 317 kts 259°
2026-05-04 01:18 34.78171 -116.61690 22409 ft 318 kts 260°
2026-05-04 01:18 34.77907 -116.64363 22205 ft 319 kts 260°
2026-05-04 01:18 34.77640 -116.67048 21996 ft 320 kts 260°
2026-05-04 01:19 34.77382 -116.69746 21808 ft 322 kts 260°
2026-05-04 01:19 34.77123 -116.72434 21783 ft 318 kts 260°
2026-05-04 01:19 34.76865 -116.75083 21792 ft 314 kts 260°
2026-05-04 01:19 34.76607 -116.77718 21791 ft 312 kts 260°
2026-05-04 01:20 34.76351 -116.80334 21791 ft 311 kts 260°
2026-05-04 01:20 34.76096 -116.82946 21797 ft 310 kts 260°
2026-05-04 01:20 34.75843 -116.85514 21792 ft 309 kts 260°
2026-05-04 01:20 34.75588 -116.88104 21790 ft 308 kts 260°
2026-05-04 01:21 34.75326 -116.90684 21795 ft 307 kts 260°
2026-05-04 01:21 34.75064 -116.93265 21790 ft 307 kts 260°
2026-05-04 01:21 34.74804 -116.95842 21791 ft 307 kts 260°
2026-05-04 01:21 34.74544 -116.98413 21794 ft 306 kts 260°
2026-05-04 01:22 34.74283 -117.00988 21794 ft 306 kts 260°
2026-05-04 01:22 34.74022 -117.03555 21797 ft 306 kts 260°
2026-05-04 01:22 34.73760 -117.06121 21797 ft 306 kts 260°
2026-05-04 01:22 34.73499 -117.08683 21801 ft 305 kts 260°
2026-05-04 01:23 34.73238 -117.11246 21849 ft 306 kts 260°
2026-05-04 01:23 34.72973 -117.13819 21865 ft 307 kts 260°
2026-05-04 01:23 34.72707 -117.16399 21874 ft 308 kts 260°
2026-05-04 01:23 34.72441 -117.18986 21884 ft 309 kts 260°
2026-05-04 01:24 34.72174 -117.21578 21838 ft 311 kts 260°
2026-05-04 01:24 34.71900 -117.24220 21573 ft 318 kts 260°
2026-05-04 01:24 34.71621 -117.26909 21257 ft 323 kts 260°
2026-05-04 01:24 34.71342 -117.29613 20932 ft 321 kts 260°
2026-05-04 01:25 34.71063 -117.32293 20607 ft 318 kts 260°
2026-05-04 01:25 34.70787 -117.34952 20285 ft 316 kts 260°
2026-05-04 01:25 34.70509 -117.37591 19958 ft 314 kts 260°
2026-05-04 01:25 34.70235 -117.40215 19637 ft 312 kts 259°
2026-05-04 01:26 34.69964 -117.42792 19320 ft 310 kts 260°
2026-05-04 01:26 34.69692 -117.45385 19000 ft 309 kts 260°
2026-05-04 01:26 34.69419 -117.47969 18677 ft 307 kts 260°
2026-05-04 01:26 34.69147 -117.50538 18356 ft 306 kts 259°
2026-05-04 01:27 34.68874 -117.53097 18009 ft 304 kts 259°
2026-05-04 01:27 34.68605 -117.55635 17677 ft 304 kts 260°
2026-05-04 01:27 34.68322 -117.58247 17349 ft 318 kts 260°
2026-05-04 01:27 34.68037 -117.60927 17010 ft 321 kts 260°
2026-05-04 01:28 34.67750 -117.63622 16738 ft 321 kts 260°
2026-05-04 01:28 34.67467 -117.66312 16437 ft 321 kts 260°
2026-05-04 01:28 34.67182 -117.69015 16101 ft 321 kts 260°
2026-05-04 01:28 34.66898 -117.71694 15744 ft 319 kts 260°
2026-05-04 01:29 34.66614 -117.74363 15421 ft 317 kts 260°
2026-05-04 01:29 34.66332 -117.77012 15094 ft 315 kts 260°
2026-05-04 01:29 34.66051 -117.79646 14803 ft 314 kts 260°
2026-05-04 01:29 34.65770 -117.82269 14486 ft 312 kts 260°
2026-05-04 01:30 34.65494 -117.84839 14169 ft 309 kts 259°
2026-05-04 01:30 34.65219 -117.87405 14020 ft 301 kts 259°
2026-05-04 01:30 34.64952 -117.89875 14027 ft 289 kts 259°
2026-05-04 01:30 34.64686 -117.92287 14030 ft 289 kts 259°
2026-05-04 01:31 34.64417 -117.94725 14037 ft 294 kts 259°
2026-05-04 01:31 34.64144 -117.97222 14040 ft 301 kts 259°
2026-05-04 01:31 34.63867 -117.99764 14009 ft 307 kts 259°
2026-05-04 01:31 34.63576 -118.02401 13661 ft 322 kts 259°
2026-05-04 01:32 34.63287 -118.05054 13209 ft 312 kts 259°
2026-05-04 01:32 34.62879 -118.07618 12775 ft 305 kts 251°
2026-05-04 01:32 34.62296 -118.10064 12353 ft 300 kts 252°
2026-05-04 01:32 34.61777 -118.12506 11940 ft 296 kts 253°
2026-05-04 01:33 34.61259 -118.14909 11541 ft 292 kts 252°
2026-05-04 01:33 34.60724 -118.17273 11138 ft 289 kts 252°
2026-05-04 01:33 34.60197 -118.19618 10739 ft 285 kts 252°
2026-05-04 01:33 34.59699 -118.21868 10363 ft 276 kts 252°
2026-05-04 01:34 34.59206 -118.24087 9981 ft 269 kts 252°
2026-05-04 01:34 34.58719 -118.26257 9594 ft 263 kts 252°
2026-05-04 01:34 34.58244 -118.28386 9245 ft 258 kts 252°
2026-05-04 01:34 34.57778 -118.30472 8895 ft 254 kts 253°
2026-05-04 01:35 34.57316 -118.32531 8537 ft 253 kts 252°
2026-05-04 01:35 34.56857 -118.34583 8191 ft 252 kts 253°
2026-05-04 01:35 34.56399 -118.36620 8060 ft 244 kts 254°
2026-05-04 01:35 34.55949 -118.38630 8061 ft 251 kts 253°
2026-05-04 01:36 34.55480 -118.40709 8008 ft 261 kts 253°
2026-05-04 01:36 34.54993 -118.42868 7764 ft 267 kts 253°
2026-05-04 01:36 34.54490 -118.45032 7473 ft 265 kts 251°
2026-05-04 01:36 34.53661 -118.47021 7174 ft 265 kts 237°
2026-05-04 01:37 34.52480 -118.48749 6869 ft 268 kts 225°
2026-05-04 01:37 34.50991 -118.50114 6576 ft 270 kts 212°
2026-05-04 01:37 34.49273 -118.51047 6259 ft 272 kts 200°
2026-05-04 01:37 34.47417 -118.51473 5939 ft 269 kts 185°
2026-05-04 01:38 34.45619 -118.51382 5649 ft 255 kts 176°
2026-05-04 01:38 34.43905 -118.51201 5368 ft 239 kts 178°
2026-05-04 01:38 34.42291 -118.51060 5102 ft 227 kts 178°
2026-05-04 01:38 34.40757 -118.50914 4841 ft 214 kts 177°
2026-05-04 01:39 34.39315 -118.50772 4599 ft 202 kts 177°
2026-05-04 01:39 34.37953 -118.50634 4380 ft 192 kts 177°
2026-05-04 01:39 34.36650 -118.50500 4174 ft 185 kts 177°
2026-05-04 01:39 34.35366 -118.50366 3969 ft 185 kts 178°
2026-05-04 01:40 34.34140 -118.50238 3881 ft 181 kts 177°
2026-05-04 01:40 34.32919 -118.50107 3675 ft 175 kts 178°
2026-05-04 01:40 34.31742 -118.50016 3310 ft 160 kts 180°
2026-05-04 01:40 34.30712 -118.49928 3009 ft 140 kts 179°
2026-05-04 01:41 34.29786 -118.49830 2816 ft 132 kts 178°
2026-05-04 01:41 34.28882 -118.49731 2571 ft 129 kts 181°
2026-05-04 01:41 34.27994 -118.49703 2362 ft 126 kts 183°
2026-05-04 01:41 34.27140 -118.49668 2105 ft 119 kts 178°
2026-05-04 01:42 34.26334 -118.49550 1981 ft 115 kts 174°
2026-05-04 01:42 34.25505 -118.49461 1764 ft 123 kts 177°
2026-05-04 01:42 34.24659 -118.49384 1635 ft 115 kts 174°
2026-05-04 01:42 34.23888 -118.49302 1403 ft 108 kts 172°
2026-05-04 01:43 34.23175 -118.49244 1231 ft 100 kts 173°
2026-05-04 01:43 34.22474 -118.49171 1035 ft 103 kts 173°
2026-05-04 01:43 34.21761 -118.49110 852 ft 100 kts 173°
2026-05-04 01:43 34.21109 -118.49045 793 ft 83 kts 172°
2026-05-04 01:44 34.20623 -118.49002 778 ft 43 kts 173°
2026-05-04 01:44 34.20456 -118.49033 770 ft 18 kts 202°
2026-05-04 01:44 34.20412 -118.49054 768 ft 4 kts 208°